Theta_e
310 309 310 310 310 312 313 314 314 314 313 313 313 312 312 312 312 313 314 315 315 313 314 314 314 317 319 318 317 318 319 319 319 318 318 319 319 319 318 318 318 316 316 318 318 318 317
310 310 310 310 310 311 313 314 314 314 313 313 313 313 313 314 315 315 315 316 316 314 313 313 316 318 320 317 318 319 319 319 318 318 318 318 318 319 320 319 318 319 319 318 318 318 318
311 311 311 310 310 311 312 314 314 314 314 314 314 315 315 315 315 313 313 314 315 316 316 317 317 319 319 317 318 319 319 319 318 319 317 316 319 319 319 320 320 319 318 316 317 318 316
312 312 311 310 311 311 312 314 314 315 315 315 315 316 316 316 315 314 314 314 315 316 316 317 317 319 317 319 319 319 319 319 319 319 319 320 319 319 319 320 320 319 315 316 316 317 317
313 313 311 311 311 312 312 313 314 315 315 316 316 317 317 317 316 316 316 315 315 315 316 316 318 320 319 319 319 319 319 317 318 319 320 320 320 319 319 314 312 312 315 315 316 316 315
314 314 312 312 312 313 313 312 314 315 316 317 317 317 317 316 316 316 316 316 316 316 316 318 318 319 318 318 318 317 316 316 318 319 320 320 320 314 311 311 314 315 314 314 318 315 315
315 314 313 313 313 313 313 312 313 315 316 317 317 317 317 316 316 316 318 321 319 318 317 316 317 317 317 317 317 316 316 318 318 318 318 317 314 314 315 315 316 315 315 316 316 316 316
315 315 314 314 313 313 313 314 312 314 315 316 317 316 316 316 316 317 321 324 322 320 318 317 316 315 316 316 317 317 314 317 317 315 314 314 316 316 315 316 316 315 317 316 315 316 317
315 315 314 314 314 313 313 313 314 313 314 315 316 317 316 316 316 317 320 316 319 317 323 316 317 317 316 316 317 317 316 316 317 316 313 315 317 316 315 315 315 315 317 317 317 316 316
313 314 314 314 314 313 312 313 314 315 314 314 315 316 317 317 316 320 323 315 318 318 317 316 317 317 317 317 317 317 317 318 316 316 315 316 315 314 316 316 315 316 315 317 317 317 318
310 312 313 314 314 313 312 313 314 315 314 314 313 316 316 316 324 319 319 315 316 320 319 318 317 317 318 317 317 317 319 317 315 315 314 316 314 314 316 315 315 316 315 317 318 317 318
309 310 311 312 314 313 313 312 314 314 314 315 312 314 316 316 321 321 321 314 318 321 325 318 317 318 318 318 317 318 318 318 318 318 317 315 316 314 315 316 317 316 318 318 317 317 318
310 310 311 310 314 314 313 313 314 315 314 315 315 315 316 316 316 318 316 318 323 318 321 318 318 317 318 317 318 317 317 316 316 316 317 318 316 315 317 317 316 315 316 316 316 315 318
311 310 311 311 310 314 314 313 314 315 315 316 317 317 313 319 320 317 318 320 322 322 319 318 318 317 318 316 317 317 317 316 315 316 317 321 319 318 316 317 317 317 318 315 321 316 317
310 310 311 311 311 313 314 313 313 316 315 318 318 315 317 314 318 318 325 316 315 318 317 317 318 318 319 318 316 317 316 317 316 315 318 318 320 318 317 317 317 318 317 317 316 306 312
309 309 309 311 311 310 315 314 314 316 316 323 324 318 317 314 318 326 317 315 316 316 317 319 319 318 318 318 318 318 317 316 317 316 316 319 320 318 318 318 317 318 317 317 313 314 322
309 308 308 310 311 310 314 314 314 315 322 324 326 321 316 316 322 325 313 313 315 316 317 318 319 320 319 320 319 319 318 317 317 316 317 316 317 317 316 319 319 315 316 317 319 315 319
309 308 308 309 310 311 312 314 315 315 322 325 326 316 317 323 321 320 314 316 317 317 318 318 318 318 319 319 319 320 320 318 317 318 318 316 312 313 317 315 316 317 318 316 312 319 313
309 309 308 308 310 310 311 314 315 315 318 322 322 321 321 324 310 308 317 317 318 318 317 318 318 318 318 319 318 319 319 318 316 317 317 315 311 312 314 313 314 317 317 316 314 308 314
308 308 308 308 310 310 312 314 315 315 318 322 320 312 319 321 323 316 317 318 318 318 318 319 318 318 317 318 317 317 318 318 317 318 317 315 314 313 313 314 315 317 317 316 314 306 315
308 308 308 308 309 310 312 315 315 315 317 321 321 317 320 311 316 316 318 319 319 319 318 317 318 318 318 315 315 318 318 317 317 317 316 314 313 314 314 315 316 317 317 317 317 314 313
308 308 308 308 308 310 312 315 315 315 317 320 321 322 319 318 320 316 313 317 318 317 318 317 317 317 317 318 317 319 317 316 316 316 316 314 312 313 315 315 316 316 316 315 314 314 313
309 309 308 308 309 311 314 316 316 315 320 318 318 319 319 316 315 310 311 317 317 318 318 317 317 315 312 318 318 318 317 317 317 315 311 313 307 306 315 311 312 315 313 312 312 312 311
311 310 310 310 310 313 315 316 316 315 320 318 319 319 317 307 311 311 318 317 316 317 317 317 316 312 317 318 316 316 315 312 311 312 314 306 304 305 309 310 317 314 311 312 312 311 311
312 312 311 311 313 314 315 316 316 316 316 318 317 319 319 305 313 318 317 317 316 316 317 317 317 317 317 316 305 304 304 304 304 313 313 312 307 311 311 314 312 313 312 313 312 312 312
312 313 313 313 314 315 316 316 316 316 316 316 316 318 319 317 310 318 317 316 309 310 314 317 318 316 317 308 301 302 304 306 311 311 311 307 302 304 309 313 314 309 309 313 313 312 313
313 313 314 314 315 315 315 315 316 316 315 315 317 317 319 318 317 318 317 312 317 316 309 315 317 316 315 306 305 307 306 309 310 305 304 303 307 305 298 308 305 307 310 313 308 310 312
313 313 313 314 314 315 315 316 316 316 317 317 316 317 316 317 317 318 318 317 317 317 306 316 313 312 306 308 307 305 309 305 308 309 307 307 305 308 306 309 312 311 311 310 310 311 310
313 313 313 314 313 315 315 315 316 317 317 317 317 317 318 318 317 317 317 317 317 318 318 317 315 314 314 305 305 299 308 307 303 312 309 312 308 306 306 307 309 310 311 311 311 310 310
Wind_Speed
8 10 10 11 11 10 9 8 7 7 6 6 7 9 11 13 14 15 15 13 11 11 14 7 4 6 8 7 8 8 11 13 12 16 16 15 18 10 4 2 5 3 2 2 4 5 5
9 10 11 11 12 11 10 9 8 8 8 9 11 14 16 17 16 14 12 12 11 11 9 3 2 6 5 4 7 9 11 13 11 11 14 10 12 14 4 4 3 3 5 5 10 9 8
9 10 11 12 13 13 12 10 10 10 11 13 15 17 17 16 14 13 13 13 11 9 8 6 3 6 4 3 5 9 5 6 6 9 12 11 10 11 10 5 4 4 4 7 12 6 4
9 10 11 13 14 15 13 11 11 11 12 13 14 15 15 14 13 14 14 14 13 12 8 3 4 5 0 3 4 6 9 3 7 5 8 7 11 11 5 7 5 3 4 4 6 8 4
9 11 12 14 14 15 14 11 11 11 12 13 15 15 14 13 13 13 14 11 10 7 3 2 4 4 2 2 5 4 8 11 7 6 8 11 12 3 3 4 5 6 4 4 9 6 4
9 11 12 14 15 15 15 12 11 11 11 12 14 14 13 13 12 11 11 8 6 3 3 5 5 2 2 1 3 7 11 12 10 15 14 3 3 3 5 5 1 4 5 6 1 6 5
9 10 12 14 15 16 15 12 10 9 9 11 12 12 12 11 9 9 7 3 1 1 4 4 6 5 4 1 6 10 13 6 8 8 3 4 6 2 4 2 4 1 3 3 4 3 7
10 10 11 13 15 16 15 13 9 7 7 9 10 10 10 10 9 6 5 4 4 2 3 4 6 6 3 6 3 10 13 1 4 3 5 7 3 2 5 5 4 6 3 4 6 6 3
9 11 12 12 13 15 14 14 9 8 6 7 8 8 8 8 4 3 8 4 7 3 1 1 1 2 3 4 3 9 12 4 2 5 4 5 2 3 5 6 7 3 2 4 6 7 3
9 11 12 11 13 14 14 13 10 7 6 6 9 9 8 6 4 3 4 5 4 5 4 2 2 1 3 1 2 7 10 4 5 2 2 1 3 4 6 2 3 4 4 5 6 4 2
8 10 12 12 12 13 14 14 10 6 6 5 8 11 10 8 5 4 2 2 4 2 5 3 0 1 3 3 3 7 8 2 2 4 5 4 2 4 4 3 3 7 7 8 4 4 3
5 7 9 11 12 12 13 15 11 6 7 6 6 10 12 11 6 3 3 2 2 6 1 2 1 1 1 3 4 7 16 6 5 4 3 3 2 3 1 4 1 6 6 5 4 3 3
4 4 6 10 12 10 12 14 12 5 6 7 7 7 9 9 7 5 5 1 4 5 2 2 1 2 3 4 5 5 5 11 5 6 7 6 4 4 3 5 7 8 6 4 5 5 4
5 2 3 7 9 9 10 13 13 6 6 8 9 7 6 8 7 7 3 5 6 4 3 1 1 1 2 2 2 5 4 5 7 5 3 5 7 7 6 2 2 4 5 4 1 0 5
6 3 1 3 5 7 7 10 14 7 6 8 9 10 7 5 10 5 1 5 5 4 3 4 3 3 3 5 3 5 4 3 6 7 4 5 4 5 4 5 2 4 4 1 5 2 3
8 5 3 1 2 4 6 8 13 9 6 8 6 9 8 7 9 2 4 3 2 2 3 4 3 4 3 5 4 3 4 5 3 8 2 3 4 2 6 6 3 3 1 5 4 2 3
11 8 6 3 2 2 4 6 10 11 7 7 4 3 5 6 2 2 4 2 2 3 3 4 4 4 4 3 4 3 3 3 3 5 9 2 2 7 4 3 2 5 4 3 1 4 3
14 11 8 6 4 1 2 3 6 11 5 4 3 4 3 4 3 3 2 2 3 3 5 5 5 4 3 4 4 3 2 3 1 2 2 3 4 3 5 8 2 2 3 5 3 5 3
15 13 11 9 6 3 1 1 3 7 9 7 4 4 5 5 3 2 2 4 7 4 6 4 3 4 3 3 3 3 2 4 4 2 3 0 2 3 7 6 8 4 8 4 3 2 6
15 14 12 11 8 6 3 2 1 3 7 6 3 3 4 7 3 6 4 2 3 6 5 5 2 4 5 4 5 1 6 4 2 2 5 4 3 6 5 6 3 9 15 11 4 3 5
18 16 14 12 10 7 5 4 3 3 4 5 4 2 2 2 6 8 4 1 4 2 3 4 5 6 3 2 4 2 3 5 7 1 1 4 5 4 7 8 5 16 17 16 11 14 6
18 17 15 13 10 8 6 5 5 5 5 7 4 3 4 4 3 6 6 3 2 4 3 3 5 2 6 3 3 2 1 0 5 3 2 3 4 4 11 7 8 17 15 13 13 14 9
18 17 15 13 11 9 7 6 6 6 7 6 8 7 3 3 2 4 2 2 2 6 4 7 6 4 4 1 4 5 7 8 13 6 3 2 3 2 6 5 5 10 8 6 5 7 7
19 18 16 14 12 10 8 6 5 6 6 9 9 7 4 2 2 3 2 5 4 4 4 3 3 5 4 2 5 9 15 17 13 16 12 5 3 2 3 1 4 9 6 7 6 8 6
20 19 18 16 14 11 9 8 6 6 7 6 8 5 4 1 2 3 1 1 3 2 1 1 2 2 2 3 4 6 5 7 5 6 2 8 4 1 1 2 7 11 10 2 2 8 5
21 20 18 17 16 13 11 9 7 6 6 6 6 7 5 7 5 4 1 0 2 0 4 3 5 6 2 6 4 3 2 4 5 5 6 6 5 3 2 4 5 8 5 6 5 6 8
23 21 20 18 16 15 13 10 9 8 8 8 7 7 6 5 5 5 4 3 4 4 2 2 5 5 3 3 2 4 4 2 3 4 3 3 2 3 1 6 8 9 12 2 4 8 10
27 24 22 21 19 17 15 12 10 9 9 9 9 8 8 5 6 5 7 8 6 5 4 4 3 1 4 3 3 4 4 5 1 4 5 5 3 4 3 3 8 5 3 2 9 16 30
30 28 25 22 20 19 16 15 13 11 10 10 9 9 8 7 5 8 11 15 16 12 7 7 4 5 8 3 2 2 3 2 4 5 1 3 7 4 8 7 4 8 24 26 26 34 32
Wind_Direction
54 42 38 33 30 34 36 42 38 43 53 68 87 108 121 119 127 141 147 142 137 136 150 129 61 23 32 65 59 39 25 18 5 33 19 7 27 14 23 16 80 82 236 188 217 214 219
52 46 41 41 40 44 45 51 57 66 80 94 109 115 118 123 124 124 124 121 127 144 159 135 28 358 4 58 33 31 28 11 22 24 13 6 356 356 13 4 89 305 289 274 239 235 241
54 51 46 46 46 43 45 55 63 73 89 100 107 112 115 112 112 110 110 118 130 143 138 145 69 45 84 72 45 21 354 329 355 357 0 15 9 6 337 343 324 290 296 321 272 239 241
62 58 53 53 49 46 46 58 68 76 89 99 107 110 108 106 106 110 110 114 123 137 151 133 16 3 124 123 28 19 7 340 307 314 313 346 341 325 304 303 345 328 52 340 303 157 260
69 64 60 56 52 49 50 66 77 82 92 104 110 108 104 108 115 117 115 126 134 144 156 316 344 6 3 26 22 30 347 325 306 321 313 293 293 310 358 46 15 13 320 345 355 65 350
72 69 64 60 54 51 52 69 84 91 98 107 110 109 111 115 117 115 118 128 146 134 344 326 314 28 70 2 58 352 326 300 298 312 328 281 171 50 27 49 325 307 344 341 315 332 355
76 72 65 60 55 52 51 64 87 102 106 110 110 115 118 121 116 104 79 57 137 101 76 50 56 65 61 324 299 357 342 310 302 291 247 17 67 75 285 299 264 105 21 332 285 265 357
82 74 69 60 53 49 49 57 77 100 121 124 122 124 130 124 118 114 31 55 41 83 14 33 52 44 58 345 335 349 358 16 28 350 353 28 97 253 305 29 41 42 30 317 285 307 329
83 76 68 61 55 48 44 47 66 81 121 147 149 140 136 131 118 79 32 74 111 15 70 308 104 18 38 358 327 334 3 358 4 30 43 127 220 21 62 26 13 326 161 278 254 322 330
90 77 69 62 56 48 43 42 51 71 80 157 172 169 164 154 132 102 23 81 49 8 74 310 277 280 327 271 311 332 15 27 11 36 46 141 3 47 35 66 41 307 244 283 291 34 301
92 76 66 58 56 48 41 39 42 74 69 99 172 183 180 175 162 166 115 99 358 340 62 270 52 154 310 97 325 8 353 344 34 313 69 260 55 61 50 293 297 255 303 277 294 163 88
109 81 66 54 50 48 41 36 36 81 80 86 134 171 188 189 168 181 185 203 319 48 318 18 87 299 121 29 357 69 39 49 38 20 358 256 94 78 242 293 95 286 311 3 31 91 52
148 94 66 52 44 42 40 33 34 83 106 86 105 149 173 196 207 187 175 232 46 96 221 52 97 31 78 347 358 75 62 44 35 20 360 347 4 324 359 11 352 15 31 3 14 12 227
182 157 71 48 36 38 38 30 33 66 133 99 95 99 138 171 166 164 161 54 78 297 21 241 84 24 97 0 351 29 46 38 10 52 52 34 334 14 346 61 304 333 88 127 228 351 282
199 190 104 47 24 27 33 27 31 48 129 130 99 78 85 132 162 161 174 56 181 209 310 352 4 66 36 0 42 90 72 59 35 30 45 13 296 333 36 319 114 328 30 151 107 7 43
209 210 205 190 11 10 26 24 29 38 129 137 114 73 60 118 144 146 78 151 105 33 11 39 78 31 97 355 42 59 70 333 350 21 146 323 305 304 299 348 21 78 253 31 8 27 290
215 220 225 220 231 355 19 17 27 39 98 134 124 72 63 117 61 72 121 184 121 60 92 81 24 62 69 41 38 51 45 326 15 357 68 35 78 292 342 47 28 353 23 17 144 134 218
212 218 225 228 224 238 15 16 19 39 72 117 101 61 53 35 55 25 82 67 119 14 29 80 87 80 73 40 35 70 120 166 211 37 45 336 126 289 283 293 258 135 108 100 92 322 272
213 215 218 220 220 213 194 15 28 33 53 89 72 92 55 37 105 333 37 61 56 51 25 37 64 49 76 53 86 54 86 195 171 123 157 214 353 356 348 345 12 2 299 120 161 123 229
213 216 216 216 216 212 199 167 80 50 52 84 87 41 47 61 81 122 106 97 100 46 46 50 97 59 62 43 24 31 18 348 320 238 173 148 163 168 203 215 195 286 288 303 174 176 248
209 209 212 215 218 217 208 183 158 117 80 107 67 79 48 327 12 85 89 142 123 111 80 45 39 36 132 82 18 36 18 349 342 340 170 116 204 232 234 237 249 267 281 291 280 260 230
204 206 208 213 214 214 213 196 167 149 132 95 107 116 86 63 50 57 12 33 117 78 93 20 93 79 58 105 183 264 334 258 238 259 16 3 268 170 288 247 236 260 274 266 269 276 263
199 200 204 209 212 209 206 197 172 160 157 113 113 109 113 10 54 75 246 31 110 117 83 121 118 93 53 169 213 231 242 235 245 239 162 226 171 98 263 36 13 301 241 213 221 253 263
198 197 196 199 204 207 208 201 174 160 161 141 134 135 119 268 89 183 7 81 86 57 144 116 87 114 197 300 294 280 277 283 279 272 223 182 107 120 256 41 195 249 279 263 276 264 255
200 198 196 195 196 201 206 205 185 168 159 150 151 153 139 158 174 298 348 31 122 90 108 135 306 124 165 37 33 360 341 2 320 37 41 184 130 183 217 217 283 291 273 225 235 269 193
202 203 203 200 195 193 196 202 201 191 177 181 169 166 152 131 245 207 168 70 149 13 347 137 156 151 175 85 73 113 273 250 302 326 68 66 72 131 180 252 273 234 242 283 312 287 198
203 205 206 207 204 198 194 196 198 195 194 197 195 191 177 186 187 183 189 178 163 137 158 241 179 187 162 106 131 174 239 218 250 192 257 347 346 222 198 240 282 256 265 294 73 281 284
207 208 210 210 211 212 209 205 205 206 205 203 204 200 206 204 196 207 222 223 202 201 144 166 65 273 65 108 157 217 183 235 270 227 203 181 184 232 226 237 269 49 37 122 272 302 311
211 212 212 214 216 218 223 225 222 217 221 217 218 222 222 229 244 237 243 247 253 251 232 201 225 175 196 104 214 126 209 201 187 257 262 243 199 214 186 222 234 293 306 300 305 309 315